User: anonymous   Login
Location: Unspecified
(0.0000°N, 0.0000°E)
Time: 02:40:34
(UTC+00:00)
Language:

P83-1 Hilat - Orbit

View from above orbital plane
View from above orbital plane
View from above satellite
View from above satellite

Ground track
Ground track

The orbit data is extracted from the following two-line orbital elements,

1 14154U 83063A   17205.40574869 +.00000069 +00000-0 +18096-4 0  9996
2 14154 082.0263 293.8939 0041149 035.9391 018.7149 14.36291330781132
Epoch (UTC): 24 July 2017 09:44:16
Eccentricity: 0.0041149
inclination: 82.0263°
perigee height: 741 km
apogee height: 800 km
right ascension of ascending node: 293.8939°
argument of perigee: 35.9391°
revolutions per day: 14.36291330
mean anomaly at epoch: 18.7149°
orbit number at epoch: 78113

The dashed part of the orbit path shows where the satellite is in the earth's shadow,  

DLR